Regional Weather Roundup
Issued by NWS Kansas City/Pleasant Hill, MO

Home | Current Version | Previous Version | Graphics & Text | Print | Product List | Glossary Off
Versions: 1 2 3 4 5 6 7 8 9 10 11 12 13 14 15 16 17 18 19 20 21 22 23 24 25 26 27 28 29 30 31 32 33 34 35 36 37 38 39 40 41 42 43 44 45 46 47 48 49 50

947
ASUS43 KEAX 111710
RWREAX

WEATHER ROUNDUP FOR EASTERN KANSAS AND NORTHWEST MISSOURI
NATIONAL WEATHER SERVICE KANSAS CITY/PLEASANT HILL MO
1100 AM CST THU FEB 11 2016

KSZ040-057-103>105-MOZ028-029-037-043-111800-
...KANSAS CITY METROPOLITAN AREA...

CITY           SKY/WX    TMP DP  RH WIND       PRES   REMARKS
K.C. INTL      MOSUNNY   28  20  71 CALM      30.29F
K.C. DOWNTOWN  MOSUNNY   32  21  64 NE7       30.31F WCI  26
LEES SUMMIT    SUNNY     29  20  69 NE7       30.30F WCI  22
OLATHE - IXD   SUNNY     31  19  61 E9        30.29F WCI  23
OLATHE - OJC   SUNNY     31  18  58 E8        30.29F WCI  23
LAWRENCE       SUNNY     31  19  61 VRB5      30.30F WCI  26

$$

MOZ001>008-011>017-020>025-030>033-038>040-044>046-053-054-111800-
...NORTHERN AND CENTRAL MISSOURI...

CITY           SKY/WX    TMP DP  RH WIND       PRES   REMARKS
ST. JOSEPH     SUNNY     27  16  63 VRB6      30.33F WCI  20
MOSBY          SUNNY     30  19  64 NE5       30.32F WCI  25
WARRENSBURG    SUNNY     32  21  64 NE8       30.31F WCI  25
WHITEMAN AFB   MOSUNNY   32  19  58 E8        30.29S WCI  25
CLINTON          N/A     34  23  64 E8        30.30S WCI  27
SEDALIA        SUNNY     32  18  56 NE10      30.32R WCI  24
WARSAW         NOT AVBL
CHILLICOTHE      N/A     27  11  51 NE5       30.34F WCI  22
KIRKSVILLE     SUNNY     18   3  52 E6        30.33F WCI  10

$$

MOZ041-047>049-056>058-063>065-088>090-097-111800-
...EASTERN AND SOUTHERN MISSOURI...

CITY           SKY/WX    TMP DP  RH WIND       PRES   REMARKS
ST. LOUIS INTL PTSUNNY   25  10  53 CALM      30.35R
SPIRIT OF STL  CLOUDY    25  17  72 NE6       30.35R WCI  18
COLUMBIA       CLOUDY    26  15  63 E8        30.33R WCI  18
JEFFERSON CITY SUNNY     28  17  63 E5        30.34R WCI  23
ROLLA          SUNNY     29  20  69 E10       30.26S WCI  20
OSAGE BEACH    SUNNY     34  19  55 NE9       30.29R WCI  26
SPRINGFIELD    SUNNY     37  16  42 NE10      30.21S WCI  30
BRANSON        SUNNY     36  16  44 E7        30.22R WCI  30
JOPLIN         SUNNY     37  20  50 NE10      30.24S WCI  30
WEST PLAINS    SUNNY     36  15  42 E9        30.24R WCI  29

$$

IAZ060-094-KSZ022-034>040-054-083-096-NEZ052-066-093-111800-
...KANSAS...SOUTHEAST NEBRASKA AND IOWA...

CITY           SKY/WX    TMP DP  RH WIND       PRES   REMARKS
TOPEKA         SUNNY     31  20  63 E7        30.30F WCI  24
MANHATTAN      CLOUDY    26  22  84 SE5       30.29F WCI  20
EMPORIA        SUNNY     32  22  66 NE7       30.27F WCI  26
CHANUTE        SUNNY     36  22  56 NE9       30.27R WCI  29
WICHITA        MOSUNNY   37  22  54 NE9       30.24F WCI  30
OMAHA          CLOUDY    18   6  59 SE6       30.32S WCI  10
LINCOLN        CLOUDY    22  17  81 E5        30.30S WCI  16
LAMONI         CLOUDY    19   0  43 E6        30.32S WCI  11
DES MOINES     MOSUNNY   14   0  53 S3        30.35R

$$





USA.gov is the U.S. government's official web portal to all federal, state and local government web resources and services.